TimeCDT,TemperatureF,Dew PointF,Humidity,Sea Level PressureIn,VisibilityMPH,Wind Direction,Wind SpeedMPH,Gust SpeedMPH,PrecipitationIn,Events,Conditions,WindDirDegrees,DateUTC
12:36 AM,75.2,69.8,83,29.92,10.0,South,20.7,26.5,N/A,,Mostly Cloudy,170,2012-10-22 05:36:00
12:51 AM,73.9,69.1,85,29.90,10.0,South,15.0,-,N/A,,Mostly Cloudy,170,2012-10-22 05:51:00
1:00 AM,73.4,69.8,88,29.92,10.0,South,16.1,24.2,N/A,,Partly Cloudy,170,2012-10-22 06:00:00
1:25 AM,73.4,69.8,88,29.92,10.0,South,17.3,-,N/A,,Mostly Cloudy,170,2012-10-22 06:25:00
2:51 AM,73.9,69.1,85,29.90,10.0,South,15.0,-,N/A,,Overcast,170,2012-10-22 07:51:00
3:35 AM,73.4,69.8,88,29.92,10.0,South,16.1,-,N/A,,Overcast,170,2012-10-22 08:35:00
3:51 AM,73.0,69.1,87,29.90,9.0,South,13.8,-,N/A,,Overcast,170,2012-10-22 08:51:00
4:51 AM,73.4,69.8,88,29.92,9.0,South,9.2,-,N/A,,Overcast,170,2012-10-22 09:51:00
5:15 AM,73.4,69.8,88,29.93,9.0,South,11.5,-,N/A,,Overcast,170,2012-10-22 10:15:00
5:51 AM,73.4,69.8,88,29.94,9.0,SSE,10.4,-,N/A,,Overcast,160,2012-10-22 10:51:00
6:51 AM,73.4,69.8,88,29.95,8.0,SSE,10.4,-,N/A,,Overcast,160,2012-10-22 11:51:00
7:51 AM,73.4,69.8,88,29.95,9.0,SSE,12.7,-,N/A,,Overcast,160,2012-10-22 12:51:00
8:51 AM,75.0,70.0,84,29.95,8.0,SE,11.5,-,N/A,,Overcast,140,2012-10-22 13:51:00
9:51 AM,75.2,71.6,89,30.00,8.0,SSE,9.2,-,N/A,,Overcast,150,2012-10-22 14:51:00
10:51 AM,78.1,71.1,79,30.00,9.0,SSE,8.1,-,N/A,,Mostly Cloudy,160,2012-10-22 15:51:00
11:17 AM,80.6,71.6,74,30.01,10.0,SSE,8.1,-,N/A,,Scattered Clouds,160,2012-10-22 16:17:00
11:51 AM,82.0,71.1,69,29.99,10.0,SSE,10.4,-,N/A,,Mostly Cloudy,150,2012-10-22 16:51:00
12:51 PM,87.1,70.0,57,29.95,10.0,SSE,12.7,-,N/A,,Scattered Clouds,160,2012-10-22 17:51:00
1:51 PM,88.0,68.0,51,29.94,10.0,SSE,8.1,-,N/A,,Mostly Cloudy,160,2012-10-22 18:51:00
2:51 PM,84.0,69.1,61,29.91,10.0,SSE,18.4,-,N/A,,Clear,160,2012-10-22 19:51:00
3:51 PM,82.9,69.1,63,29.91,10.0,SSE,13.8,-,N/A,,Scattered Clouds,150,2012-10-22 20:51:00
4:51 PM,82.4,69.8,66,29.93,10.0,SSE,19.6,24.2,N/A,,Clear,150,2012-10-22 21:51:00
5:51 PM,81.0,68.0,65,29.90,10.0,SE,16.1,20.7,N/A,,Clear,140,2012-10-22 22:51:00
6:51 PM,78.1,68.0,71,29.91,10.0,South,9.2,-,N/A,,Clear,170,2012-10-22 23:51:00
7:51 PM,75.9,68.0,76,29.91,10.0,SSE,10.4,-,N/A,,Clear,160,2012-10-23 00:51:00
8:51 PM,73.9,69.1,85,29.91,10.0,SSE,5.8,-,N/A,,Clear,150,2012-10-23 01:51:00
9:51 PM,73.4,69.8,88,29.93,10.0,South,11.5,-,N/A,,Clear,170,2012-10-23 02:51:00
11:51 PM,73.9,64.9,73,29.93,10.0,South,15.0,25.3,N/A,,Clear,180,2012-10-23 04:51:00